Regional Weather Roundup
Issued by NWS

Home | Current Version | Previous Version | Graphics & Text | Print | Product List | Glossary On
Versions: 1 2 3 4 5 6 7 8 9 10 11 12 13 14 15 16 17 18 19 20 21 22 23 24 25 26 27
000
ASUS45 KBOU 210307
RWRCO

WEATHER ROUNDUP FOR COLORADO
NATIONAL WEATHER SERVICE DENVER/BOULDER CO
900 PM MDT THU JUL 20 2017

NOTE: "FAIR" INDICATES FEW OR NO CLOUDS BELOW 12000 FEET WITH NO
SIGNIFICANT WEATHER AND/OR OBSTRUCTIONS TO VISIBILITY.

COZ001>005-013-030-031-210400-
...NORTHWEST COLORADO...

CITY           SKY/WX    TMP DP  RH WIND       PRES   REMARKS
CRAIG          FAIR      74  44  34 S18G30    30.18R
HAYDEN         FAIR      73  41  31 S14G26    30.22S
MEEKER         FAIR      69  54  58 NW7       30.26R
RABBIT EARS PA FAIR      52  45  76 SW7       30.57S
STEAMBOAT SPGS FAIR      68  50  52 E7        30.28R
WALDEN         FAIR      57  46  67 SE5       30.38R
$$

COZ006>008-011-210400-
...WEST CENTRAL VALLEYS...

CITY           SKY/WX    TMP DP  RH WIND       PRES   REMARKS
GRAND JUNCTION MOCLDY    83  52  34 SW13      30.11R
MONTROSE       MOCLDY    75  52  44 S9        30.21R
EAGLE          FAIR      71  54  54 CALM      30.29R
RIFLE          FAIR      74  55  51 SE7       30.17S
DELTA          FAIR      81  48  31 SE5       30.15S
NUCLA          NOT AVBL
$$

COZ017>023-064>068-210400-
...SOUTHWEST COLORADO...

CITY           SKY/WX    TMP DP  RH WIND       PRES   REMARKS
DURANGO        FAIR      68  50  52 N14       30.26R
CORTEZ         RAIN      69  55  60 E22G29    30.19S
PAGOSA SPRINGS FAIR      67  45  45 N9G21     30.34R
TELLURIDE      CLOUDY    56  53  89 E3        30.53S
WOLF CREEK PAS FAIR      52  39  62 SW7       30.72R
$$

COZ009-010-012-014-032>034-037-058>063-210400-
...CENTRAL COLORADO...

CITY           SKY/WX    TMP DP  RH WIND       PRES   REMARKS
ASPEN          FAIR      61  54  77 S7        30.37S
BUENA VISTA    FAIR      64  50  61 NE3       30.37R
COPPER MTN     CLOUDY    55  41  58 CALM      30.71S
BERTHOUD PASS  MOCLDY    43  30  61 S8        30.75R
COTTONWOOD PAS FAIR      63  43  48 NW3       30.53R
GUNNISON       FAIR      63  52  67 W3        30.35R
KREMMLING      FAIR      66  54  63 CALM      30.37R
LEADVILLE      MOCLDY    54  47  77 N5        30.50F
SALIDA         FAIR      74  46  36 NW5       30.40R
SUNLIGHT       FAIR      54  39  58 CALM      30.62S
WILKERSON PASS FAIR      54  41  62 N6        30.67S
$$

COZ069>075-210400-
...SAN LUIS VALLEY/SANGRE DE CRISTO MOUNTAINS...

CITY           SKY/WX    TMP DP  RH WIND       PRES   REMARKS
ALAMOSA        FAIR      67  53  61 W3        30.27F
DEL NORTE      TSTM      66  50  56 SW5       30.37R
LA VETA PASS   NOT AVBL
SAGUACHE         N/A    N/A N/A N/A MISG        N/A
$$

COZ035-036-038>040-210400-
...NORTHERN COLORADO FRONT RANGE...

CITY           SKY/WX    TMP DP  RH WIND       PRES   REMARKS
DENVER INTL AP LGT RAIN  77  55  46 SW18      30.15R
DMNS CITY PARK   N/A     68  59  71 SW10      30.15F
AURORA         MOCLDY    75  56  52 W14       30.17S
FRONT RANGE AP DRIZZLE   79  52  38 W16G23    30.16S
ERIE MUNI ARPT FAIR      80  45  28 S3        30.12R
BOULDER MUN AP FAIR      82  45  26 W9        30.12S
CENTENNIAL     DRIZZLE   75  53  46 W10       30.18F
BROOMFIELD     FAIR      79  46  31 S5        30.17R
FORT COLLINS   FAIR      80  52  37 W5        30.11R
LONGMONT       FAIR      84  46  26 W12       30.12R
$$

COZ041-046-047-076>085-087-088-210400-
...PIKES PEAK/PALMER DIVIDE AND SOUTHERN FOOTHILLS...

CITY           SKY/WX    TMP DP  RH WIND       PRES   REMARKS
COLO. SPRINGS  MOCLDY    78  53  41 N14       30.20S
A. F. ACADEMY  FAIR      72  53  51 N9        30.23S
SCHRIEVER AFB  FAIR      74  54  48 N14       30.20S
CHEYENNE MTN   MOCLDY    76  45  33 NW13      30.21S
ELLICOTT       FAIR     N/A N/A N/A N10       30.18R
FALCON           N/A     72  52  48 NW8       30.27F
FORT CARSON    FAIR      76  54  44 N13       30.16R
LIMON          MOCLDY    68  61  78 NE20      30.15R
MONUMENT HILL  FAIR      68  55  64 W5        30.30F
CANON CITY     CLEAR     75  55  50 SW8       30.12R
WALSENBURG     MOCLDY    79  46  31 NW8       30.17R
TRINIDAD       FAIR      82  40  22 S7        30.13R
$$

COZ042>045-048>051-090-091-210400-
...NORTHEAST COLORADO...

CITY           SKY/WX    TMP DP  RH WIND       PRES   REMARKS
GREELEY ARPT   FAIR      80  59  48 S8        30.09R
AKRON          FAIR      81  58  45 E6        30.04S
BURLINGTON     FAIR      77  64  64 SE7       30.01R
WRAY           NOT AVBL
YUMA           FAIR      79  52  38 NE3       30.00S
STERLING       FAIR      81  64  57 E3        29.98S
HOLYOKE        FAIR      79  64  61 NE6       29.97F
FORT MORGAN    FAIR      78  55  44 NE5       30.06R
$$

COZ086-089-092>099-210400-
...SOUTHEAST COLORADO...

CITY           SKY/WX    TMP DP  RH WIND       PRES   REMARKS
PUEBLO         FAIR      81  52  36 NW13      30.04R
LA JUNTA       FAIR      83  61  47 E9        30.01R
LAMAR          FAIR      83  54  36 S13       29.94R
SPRINGFIELD      N/A     76  54  46 S12       30.05R
$$




USA.gov is the U.S. government's official web portal to all federal, state and local government web resources and services.